Year,Month,Day,Hour,Minute,Value (Times are PST for temperature in C)
2014,06,23,00,00,15.70
2014,06,23,00,01,15.70
2014,06,23,00,02,15.70
2014,06,23,00,03,15.60
2014,06,23,00,04,15.60
2014,06,23,00,05,15.60
2014,06,23,00,06,15.50
2014,06,23,00,07,15.50
2014,06,23,00,08,15.40
2014,06,23,00,09,15.40
2014,06,23,00,10,15.50
2014,06,23,00,11,15.50
2014,06,23,00,12,15.50
2014,06,23,00,13,15.50
2014,06,23,00,14,15.50
2014,06,23,00,15,15.50
2014,06,23,00,16,15.60
2014,06,23,00,17,15.60
2014,06,23,00,18,15.60
2014,06,23,00,19,15.60
2014,06,23,00,20,15.50
2014,06,23,00,21,15.50
2014,06,23,00,22,15.40
2014,06,23,00,23,15.40
2014,06,23,00,24,15.30
2014,06,23,00,25,15.30
2014,06,23,00,26,15.20
2014,06,23,00,27,15.20
2014,06,23,00,28,15.10
2014,06,23,00,29,15.10
2014,06,23,00,30,15.00
2014,06,23,00,31,15.00
2014,06,23,00,32,15.00
2014,06,23,00,33,15.00
2014,06,23,00,34,15.00
2014,06,23,00,35,15.00
2014,06,23,00,36,15.00
2014,06,23,00,37,15.00
2014,06,23,00,38,15.00
2014,06,23,00,39,15.00
2014,06,23,00,40,15.00
2014,06,23,00,41,15.00
2014,06,23,00,42,15.00
2014,06,23,00,43,15.00
2014,06,23,00,44,15.00
2014,06,23,00,45,15.00
2014,06,23,00,46,15.00
2014,06,23,00,47,15.00
2014,06,23,00,48,15.00
2014,06,23,00,49,15.00
2014,06,23,00,50,15.00
2014,06,23,00,51,15.00
2014,06,23,00,52,15.00
2014,06,23,00,53,15.00
2014,06,23,00,54,15.00
2014,06,23,00,55,15.00
2014,06,23,00,56,15.00
2014,06,23,00,57,15.00
2014,06,23,00,58,15.00
2014,06,23,00,59,15.00
2014,06,23,01,00,15.00
2014,06,23,01,01,15.00
2014,06,23,01,02,15.00
2014,06,23,01,03,15.00
2014,06,23,01,04,15.00
2014,06,23,01,05,14.90
2014,06,23,01,06,14.80
2014,06,23,01,07,14.80
2014,06,23,01,08,14.70
2014,06,23,01,09,14.70
2014,06,23,01,10,14.60
2014,06,23,01,11,14.60
2014,06,23,01,12,14.50
2014,06,23,01,13,14.50
2014,06,23,01,14,14.50
2014,06,23,01,15,14.40
2014,06,23,01,16,14.40
2014,06,23,01,17,14.40
2014,06,23,01,18,14.40
2014,06,23,01,19,14.40
2014,06,23,01,20,14.40
2014,06,23,01,21,14.40
2014,06,23,01,22,14.40
2014,06,23,01,23,14.40
2014,06,23,01,24,14.40
2014,06,23,01,25,14.40
2014,06,23,01,26,14.30
2014,06,23,01,27,14.30
2014,06,23,01,28,14.30
2014,06,23,01,29,14.30
2014,06,23,01,30,14.20
2014,06,23,01,31,14.20
2014,06,23,01,32,14.20
2014,06,23,01,33,14.20
2014,06,23,01,34,14.10
2014,06,23,01,35,14.10
2014,06,23,01,36,14.10
2014,06,23,01,37,14.00
2014,06,23,01,38,14.00
2014,06,23,01,39,14.00
2014,06,23,01,40,14.00
2014,06,23,01,41,13.90
2014,06,23,01,42,13.90
2014,06,23,01,43,13.90
2014,06,23,01,44,13.90
2014,06,23,01,45,13.90
2014,06,23,01,46,13.90
2014,06,23,01,47,13.90
2014,06,23,01,48,13.90
2014,06,23,01,49,13.90
2014,06,23,01,50,13.80
2014,06,23,01,51,13.80
2014,06,23,01,52,13.80
2014,06,23,01,53,13.80
2014,06,23,01,54,13.80
2014,06,23,01,55,13.80
2014,06,23,01,56,13.80
2014,06,23,01,57,13.80
2014,06,23,01,58,13.80
2014,06,23,01,59,13.80
2014,06,23,02,00,13.70
2014,06,23,02,01,13.70
2014,06,23,02,02,13.70
2014,06,23,02,03,13.70
2014,06,23,02,04,13.70
2014,06,23,02,05,13.70
2014,06,23,02,06,13.70
2014,06,23,02,07,13.60
2014,06,23,02,08,13.60
2014,06,23,02,09,13.60
2014,06,23,02,10,13.60
2014,06,23,02,11,13.60
2014,06,23,02,12,13.60
2014,06,23,02,13,13.60
2014,06,23,02,14,13.60
2014,06,23,02,15,13.60
2014,06,23,02,16,13.60
2014,06,23,02,17,13.60
2014,06,23,02,18,13.60
2014,06,23,02,19,13.60
2014,06,23,02,20,13.60
2014,06,23,02,21,13.60
2014,06,23,02,22,13.60
2014,06,23,02,23,13.60
2014,06,23,02,24,13.60
2014,06,23,02,25,13.50
2014,06,23,02,26,13.50
2014,06,23,02,27,13.50
2014,06,23,02,28,13.50
2014,06,23,02,29,13.50
2014,06,23,02,30,13.50
2014,06,23,02,31,13.50
2014,06,23,02,32,13.40
2014,06,23,02,33,13.40
2014,06,23,02,34,13.40
2014,06,23,02,35,13.40
2014,06,23,02,36,13.40
2014,06,23,02,37,13.40
2014,06,23,02,38,13.30
2014,06,23,02,39,13.30
2014,06,23,02,40,13.30
2014,06,23,02,41,13.30
2014,06,23,02,42,13.30
2014,06,23,02,43,13.30
2014,06,23,02,44,13.30
2014,06,23,02,45,13.30
2014,06,23,02,46,13.30
2014,06,23,02,47,13.30
2014,06,23,02,48,13.30
2014,06,23,02,49,13.30
2014,06,23,02,50,13.30
2014,06,23,02,51,13.30
2014,06,23,02,52,13.30
2014,06,23,02,53,13.30
2014,06,23,02,54,13.30
2014,06,23,02,55,13.20
2014,06,23,02,56,13.20
2014,06,23,02,57,13.20
2014,06,23,02,58,13.20
2014,06,23,02,59,13.20
2014,06,23,03,00,13.20
2014,06,23,03,01,13.20
2014,06,23,03,02,13.20
2014,06,23,03,03,13.20
2014,06,23,03,04,13.20
2014,06,23,03,05,13.20
2014,06,23,03,06,13.20
2014,06,23,03,07,13.20
2014,06,23,03,08,13.20
2014,06,23,03,09,13.20
2014,06,23,03,10,13.20
2014,06,23,03,11,13.20
2014,06,23,03,12,13.20
2014,06,23,03,13,13.20
2014,06,23,03,14,13.20
2014,06,23,03,15,13.20
2014,06,23,03,16,13.10
2014,06,23,03,17,13.10
2014,06,23,03,18,13.10
2014,06,23,03,19,13.10
2014,06,23,03,20,13.10
2014,06,23,03,21,13.10
2014,06,23,03,22,13.10
2014,06,23,03,23,13.10
2014,06,23,03,24,13.00
2014,06,23,03,25,13.00
2014,06,23,03,26,13.00
2014,06,23,03,27,13.00
2014,06,23,03,28,13.00
2014,06,23,03,29,13.00
2014,06,23,03,30,12.90
2014,06,23,03,31,12.90
2014,06,23,03,32,12.90
2014,06,23,03,33,12.90
2014,06,23,03,34,12.90
2014,06,23,03,35,12.90
2014,06,23,03,36,12.90
2014,06,23,03,37,12.80
2014,06,23,03,38,12.80
2014,06,23,03,39,12.80
2014,06,23,03,40,12.80
2014,06,23,03,41,12.80
2014,06,23,03,42,12.80
2014,06,23,03,43,12.80
2014,06,23,03,44,12.80
2014,06,23,03,45,12.80
2014,06,23,03,46,12.80
2014,06,23,03,47,12.80
2014,06,23,03,48,12.80
2014,06,23,03,49,12.80
2014,06,23,03,50,12.80
2014,06,23,03,51,12.80
2014,06,23,03,52,12.80
2014,06,23,03,53,12.80
2014,06,23,03,54,12.80
2014,06,23,03,55,12.80
2014,06,23,03,56,12.80
2014,06,23,03,57,12.80
2014,06,23,03,58,12.80
2014,06,23,03,59,12.80
2014,06,23,04,00,12.80
2014,06,23,04,01,12.80
2014,06,23,04,02,12.80
2014,06,23,04,03,12.80
2014,06,23,04,04,12.90
2014,06,23,04,05,12.90
2014,06,23,04,06,12.90
2014,06,23,04,07,12.90
2014,06,23,04,08,12.90
2014,06,23,04,09,12.90
2014,06,23,04,10,12.90
2014,06,23,04,11,12.90
2014,06,23,04,12,12.90
2014,06,23,04,13,12.90
2014,06,23,04,14,12.90
2014,06,23,04,15,12.90
2014,06,23,04,16,12.90
2014,06,23,04,17,12.90
2014,06,23,04,18,12.90
2014,06,23,04,19,12.90
2014,06,23,04,20,13.00
2014,06,23,04,21,13.00
2014,06,23,04,22,13.00
2014,06,23,04,23,13.00
2014,06,23,04,24,13.00
2014,06,23,04,25,13.00
2014,06,23,04,26,13.00
2014,06,23,04,27,13.00
2014,06,23,04,28,13.00
2014,06,23,04,29,13.10
2014,06,23,04,30,13.10
2014,06,23,04,31,13.10
2014,06,23,04,32,13.10
2014,06,23,04,33,13.10
2014,06,23,04,34,13.10
2014,06,23,04,35,13.10
2014,06,23,04,36,13.10
2014,06,23,04,37,13.10
2014,06,23,04,38,13.10
2014,06,23,04,39,13.10
2014,06,23,04,40,13.10
2014,06,23,04,41,13.10
2014,06,23,04,42,13.10
2014,06,23,04,43,13.10
2014,06,23,04,44,13.10
2014,06,23,04,45,13.10
2014,06,23,04,46,13.10
2014,06,23,04,47,13.10
2014,06,23,04,48,13.10
2014,06,23,04,49,13.10
2014,06,23,04,50,13.10
2014,06,23,04,51,13.10
2014,06,23,04,52,13.10
2014,06,23,04,53,13.10
2014,06,23,04,54,13.10
2014,06,23,04,55,13.10
2014,06,23,04,56,13.10
2014,06,23,04,57,13.10
2014,06,23,04,58,13.10
2014,06,23,04,59,13.10
2014,06,23,05,00,13.10
2014,06,23,05,01,13.10
2014,06,23,05,02,13.10
2014,06,23,05,03,13.10
2014,06,23,05,04,13.10
2014,06,23,05,05,13.10
2014,06,23,05,06,13.10
2014,06,23,05,07,13.10
2014,06,23,05,08,13.10
2014,06,23,05,09,13.10
2014,06,23,05,10,13.20
2014,06,23,05,11,13.20
2014,06,23,05,12,13.20
2014,06,23,05,13,13.20
2014,06,23,05,14,13.20
2014,06,23,05,15,13.20
2014,06,23,05,16,13.20
2014,06,23,05,17,13.20
2014,06,23,05,18,13.20
2014,06,23,05,19,13.20
2014,06,23,05,20,13.20
2014,06,23,05,21,13.20
2014,06,23,05,22,13.20
2014,06,23,05,23,13.20
2014,06,23,05,24,13.20
2014,06,23,05,25,13.20
2014,06,23,05,26,13.20
2014,06,23,05,27,13.20
2014,06,23,05,28,13.20
2014,06,23,05,29,13.20
2014,06,23,05,30,13.20
2014,06,23,05,31,13.20
2014,06,23,05,32,13.20
2014,06,23,05,33,13.30
2014,06,23,05,34,13.30
2014,06,23,05,35,13.30
2014,06,23,05,36,13.30
2014,06,23,05,37,13.30
2014,06,23,05,38,13.30
2014,06,23,05,39,13.30
2014,06,23,05,40,13.30
2014,06,23,05,41,13.30
2014,06,23,05,42,13.30
2014,06,23,05,43,13.30
2014,06,23,05,44,13.30
2014,06,23,05,45,13.30
2014,06,23,05,46,13.30
2014,06,23,05,47,13.30
2014,06,23,05,48,13.40
2014,06,23,05,49,13.40
2014,06,23,05,50,13.40
2014,06,23,05,51,13.40
2014,06,23,05,52,13.40
2014,06,23,05,53,13.40
2014,06,23,05,54,13.40
2014,06,23,05,55,13.50
2014,06,23,05,56,13.50
2014,06,23,05,57,13.50
2014,06,23,05,58,13.60
2014,06,23,05,59,13.60
2014,06,23,06,00,13.60
2014,06,23,06,01,13.60
2014,06,23,06,02,13.70
2014,06,23,06,03,13.70
2014,06,23,06,04,13.70
2014,06,23,06,05,13.70
2014,06,23,06,06,13.70
2014,06,23,06,07,13.70
2014,06,23,06,08,13.80
2014,06,23,06,09,13.80
2014,06,23,06,10,13.80
2014,06,23,06,11,13.80
2014,06,23,06,12,13.80
2014,06,23,06,13,13.90
2014,06,23,06,14,13.90
2014,06,23,06,15,13.90
2014,06,23,06,16,13.90
2014,06,23,06,17,13.90
2014,06,23,06,18,13.90
2014,06,23,06,19,13.90
2014,06,23,06,20,14.00
2014,06,23,06,21,14.00
2014,06,23,06,22,14.10
2014,06,23,06,23,14.10
2014,06,23,06,24,14.20
2014,06,23,06,25,14.20
2014,06,23,06,26,14.30
2014,06,23,06,27,14.40
2014,06,23,06,28,14.50
2014,06,23,06,29,14.50
2014,06,23,06,30,14.60
2014,06,23,06,31,14.70
2014,06,23,06,32,14.70
2014,06,23,06,33,14.70
2014,06,23,06,34,14.80
2014,06,23,06,35,14.80
2014,06,23,06,36,14.80
2014,06,23,06,37,14.90
2014,06,23,06,38,15.00
2014,06,23,06,39,15.00
2014,06,23,06,40,15.00
2014,06,23,06,41,15.00
2014,06,23,06,42,15.10
2014,06,23,06,43,15.20
2014,06,23,06,44,15.30
2014,06,23,06,45,15.40
2014,06,23,06,46,15.50
2014,06,23,06,47,15.50
2014,06,23,06,48,15.60
2014,06,23,06,49,15.70
2014,06,23,06,50,15.70
2014,06,23,06,51,15.80
2014,06,23,06,52,15.80
2014,06,23,06,53,15.80
2014,06,23,06,54,15.80
2014,06,23,06,55,15.90
2014,06,23,06,56,15.90
2014,06,23,06,57,15.90
2014,06,23,06,58,15.90
2014,06,23,06,59,15.90
2014,06,23,07,00,16.00
2014,06,23,07,01,16.00
2014,06,23,07,02,16.10
2014,06,23,07,03,16.10
2014,06,23,07,04,16.10
2014,06,23,07,05,16.10
2014,06,23,07,06,16.10
2014,06,23,07,07,16.10
2014,06,23,07,08,16.20
2014,06,23,07,09,16.20
2014,06,23,07,10,16.20
2014,06,23,07,11,16.20
2014,06,23,07,12,16.20
2014,06,23,07,13,16.20
2014,06,23,07,14,16.20
2014,06,23,07,15,16.30
2014,06,23,07,16,16.30
2014,06,23,07,17,16.30
2014,06,23,07,18,16.30
2014,06,23,07,19,16.30
2014,06,23,07,20,16.30
2014,06,23,07,21,16.30
2014,06,23,07,22,16.30
2014,06,23,07,23,16.30
2014,06,23,07,24,16.30
2014,06,23,07,25,16.30
2014,06,23,07,26,16.30
2014,06,23,07,27,16.30
2014,06,23,07,28,16.20
2014,06,23,07,29,16.20
2014,06,23,07,30,16.20
2014,06,23,07,31,16.20
2014,06,23,07,32,16.20
2014,06,23,07,33,16.10
2014,06,23,07,34,16.10
2014,06,23,07,35,16.10
2014,06,23,07,36,16.10
2014,06,23,07,37,16.10
2014,06,23,07,38,16.00
2014,06,23,07,39,16.00
2014,06,23,07,40,15.90
2014,06,23,07,41,15.90
2014,06,23,07,42,15.90
2014,06,23,07,43,15.90
2014,06,23,07,44,15.90
2014,06,23,07,45,15.90
2014,06,23,07,46,16.00
2014,06,23,07,47,16.00
2014,06,23,07,48,16.00
2014,06,23,07,49,16.10
2014,06,23,07,50,16.10
2014,06,23,07,51,16.10
2014,06,23,07,52,16.20
2014,06,23,07,53,16.20
2014,06,23,07,54,16.20
2014,06,23,07,55,16.20
2014,06,23,07,56,16.30
2014,06,23,07,57,16.30
2014,06,23,07,58,16.30
2014,06,23,07,59,16.40
2014,06,23,08,00,16.40
2014,06,23,08,01,16.50
2014,06,23,08,02,16.50
2014,06,23,08,03,16.60
2014,06,23,08,04,16.60
2014,06,23,08,05,16.60
2014,06,23,08,06,16.60
2014,06,23,08,07,16.60
2014,06,23,08,08,16.60
2014,06,23,08,09,16.60
2014,06,23,08,10,16.60
2014,06,23,08,11,16.60
2014,06,23,08,12,16.60
2014,06,23,08,13,16.60
2014,06,23,08,14,16.60
2014,06,23,08,15,16.60
2014,06,23,08,16,16.60
2014,06,23,08,17,16.60
2014,06,23,08,18,16.60
2014,06,23,08,19,16.60
2014,06,23,08,20,16.70
2014,06,23,08,21,16.70
2014,06,23,08,22,16.70
2014,06,23,08,23,16.70
2014,06,23,08,24,16.70
2014,06,23,08,25,16.80
2014,06,23,08,26,16.80
2014,06,23,08,27,16.80
2014,06,23,08,28,16.90
2014,06,23,08,29,16.90
2014,06,23,08,30,17.00
2014,06,23,08,31,17.10
2014,06,23,08,32,17.10
2014,06,23,08,33,17.20
2014,06,23,08,34,17.20
2014,06,23,08,35,17.20
2014,06,23,08,36,17.30
2014,06,23,08,37,17.30
2014,06,23,08,38,17.40
2014,06,23,08,39,17.40
2014,06,23,08,40,17.40
2014,06,23,08,41,17.50
2014,06,23,08,42,17.50
2014,06,23,08,43,17.60
2014,06,23,08,44,17.70
2014,06,23,08,45,17.70
2014,06,23,08,46,17.80
2014,06,23,08,47,17.80
2014,06,23,08,48,17.80
2014,06,23,08,49,17.90
2014,06,23,08,50,17.90
2014,06,23,08,51,17.90
2014,06,23,08,52,18.00
2014,06,23,08,53,18.00
2014,06,23,08,54,18.10
2014,06,23,08,55,18.10
2014,06,23,08,56,18.20
2014,06,23,08,57,18.20
2014,06,23,08,58,18.30
2014,06,23,08,59,18.30
2014,06,23,09,00,18.40
2014,06,23,09,01,18.50
2014,06,23,09,02,18.60
2014,06,23,09,03,18.70
2014,06,23,09,04,18.80
2014,06,23,09,05,18.90
2014,06,23,09,06,19.00
2014,06,23,09,07,19.10
2014,06,23,09,08,19.20
2014,06,23,09,09,19.30
2014,06,23,09,10,19.30
2014,06,23,09,11,19.40
2014,06,23,09,12,19.50
2014,06,23,09,13,19.60
2014,06,23,09,14,19.70
2014,06,23,09,15,19.80
2014,06,23,09,16,19.90
2014,06,23,09,17,20.00
2014,06,23,09,18,20.00
2014,06,23,09,19,20.10
2014,06,23,09,20,20.10
2014,06,23,09,21,20.10
2014,06,23,09,22,20.10
2014,06,23,09,23,20.10
2014,06,23,09,24,20.10
2014,06,23,09,25,20.20
2014,06,23,09,26,20.20
2014,06,23,09,27,20.20
2014,06,23,09,28,20.20
2014,06,23,09,29,20.20
2014,06,23,09,30,20.20
2014,06,23,09,31,20.20
2014,06,23,09,32,20.20
2014,06,23,09,33,20.20
2014,06,23,09,34,20.20
2014,06,23,09,35,20.30
2014,06,23,09,36,20.30
2014,06,23,09,37,20.30
2014,06,23,09,38,20.30
2014,06,23,09,39,20.30
2014,06,23,09,40,20.40
2014,06,23,09,41,20.40
2014,06,23,09,42,20.50
2014,06,23,09,43,20.60
2014,06,23,10,24,20.80
2014,06,23,10,25,20.80
2014,06,23,10,26,20.80
2014,06,23,10,27,20.80
2014,06,23,10,28,20.80
2014,06,23,10,29,20.80
2014,06,23,10,30,20.80
2014,06,23,10,31,20.80
2014,06,23,10,32,20.90
2014,06,23,10,33,20.90
2014,06,23,10,34,20.90
2014,06,23,10,35,20.90
2014,06,23,10,36,20.90
2014,06,23,10,37,20.90
2014,06,23,10,38,20.90
2014,06,23,10,39,20.90
2014,06,23,10,40,20.90
2014,06,23,10,41,21.00
2014,06,23,10,42,21.00
2014,06,23,10,43,21.10
2014,06,23,10,44,21.10
2014,06,23,10,45,21.10
2014,06,23,10,46,21.20
2014,06,23,10,47,21.20
2014,06,23,10,48,21.20
2014,06,23,10,49,21.30
2014,06,23,10,50,21.20
2014,06,23,10,51,21.20
2014,06,23,10,52,21.20
2014,06,23,10,53,21.10
2014,06,23,10,54,21.10
2014,06,23,10,55,21.00
2014,06,23,10,56,21.00
2014,06,23,10,57,21.00
2014,06,23,10,58,20.90
2014,06,23,10,59,20.90
2014,06,23,11,00,20.90
2014,06,23,11,01,20.90
2014,06,23,11,02,20.90
2014,06,23,11,03,20.90
2014,06,23,11,04,20.90
2014,06,23,11,05,20.90
2014,06,23,11,06,21.00
2014,06,23,11,07,21.00
2014,06,23,11,08,21.10
2014,06,23,11,09,21.10
2014,06,23,11,10,21.20
2014,06,23,11,11,21.20
2014,06,23,11,12,21.30
2014,06,23,11,13,21.30
2014,06,23,11,14,21.30
2014,06,23,11,15,21.30
2014,06,23,11,16,21.20
2014,06,23,11,17,21.20
2014,06,23,11,18,21.20
2014,06,23,11,19,21.20
2014,06,23,11,20,21.10
2014,06,23,11,21,21.10
2014,06,23,11,22,21.10
2014,06,23,11,23,21.10
2014,06,23,11,24,21.10
2014,06,23,11,25,21.10
2014,06,23,11,26,21.20
2014,06,23,11,27,21.20
2014,06,23,11,28,21.20
2014,06,23,11,29,21.20
2014,06,23,11,30,21.20
2014,06,23,11,31,21.20
2014,06,23,11,32,21.20
2014,06,23,11,33,21.20
2014,06,23,11,34,21.30
2014,06,23,11,35,21.40
2014,06,23,11,36,21.50
2014,06,23,11,37,21.60
2014,06,23,11,38,21.60
2014,06,23,11,39,21.70
2014,06,23,11,40,21.80
2014,06,23,11,41,21.80
2014,06,23,11,42,21.90
2014,06,23,11,43,22.00
2014,06,23,11,44,22.00
2014,06,23,11,45,22.00
2014,06,23,13,31,21.80
2014,06,23,13,32,21.80
2014,06,23,13,33,21.70
2014,06,23,13,34,21.60
2014,06,23,13,35,21.60
2014,06,23,13,36,21.50
2014,06,23,13,37,21.40
2014,06,23,13,38,21.40
2014,06,23,13,39,21.30
2014,06,23,13,40,21.20
2014,06,23,13,41,21.20
2014,06,23,13,42,21.20
2014,06,23,13,43,21.20
2014,06,23,13,44,21.20
2014,06,23,13,45,21.10
2014,06,23,13,46,21.10
2014,06,23,13,47,21.20
2014,06,23,13,48,21.20
2014,06,23,13,49,21.20
2014,06,23,13,50,21.20
2014,06,23,13,51,21.30
2014,06,23,13,52,21.30
2014,06,23,13,53,21.30
2014,06,23,13,54,21.20
2014,06,23,13,55,21.10
2014,06,23,13,56,21.10
2014,06,23,13,57,21.00
2014,06,23,13,58,20.90
2014,06,23,13,59,20.80
2014,06,23,14,00,20.70
2014,06,23,14,01,20.60
2014,06,23,14,02,20.50
2014,06,23,14,03,20.40
2014,06,23,14,04,20.40
2014,06,23,14,05,20.30
2014,06,23,14,06,20.30
2014,06,23,14,07,20.30
2014,06,23,14,08,20.40
2014,06,23,14,09,20.30
2014,06,23,14,10,20.30
2014,06,23,14,11,20.30
2014,06,23,14,12,20.30
2014,06,23,14,13,20.30
2014,06,23,14,14,20.30
2014,06,23,14,15,20.20
2014,06,23,14,16,20.20
2014,06,23,14,17,20.20
2014,06,23,14,18,20.20
2014,06,23,14,19,20.30
2014,06,23,14,20,20.30
2014,06,23,14,21,20.20
2014,06,23,14,22,20.20
2014,06,23,14,23,20.20
2014,06,23,14,24,20.20
2014,06,23,14,25,20.20
2014,06,23,14,26,20.20
2014,06,23,14,27,20.30
2014,06,23,14,28,20.30
2014,06,23,14,29,20.30
2014,06,23,14,30,20.30
2014,06,23,14,31,20.30
2014,06,23,14,32,20.20
2014,06,23,14,33,20.20
2014,06,23,14,34,20.20
2014,06,23,14,35,20.10
2014,06,23,14,36,20.20
2014,06,23,14,37,20.20
2014,06,23,14,38,20.20
2014,06,23,14,39,20.20
2014,06,23,14,40,20.20
2014,06,23,14,41,20.20
2014,06,23,14,42,20.10
2014,06,23,14,43,20.10
2014,06,23,14,44,20.10
2014,06,23,14,45,20.10
2014,06,23,14,46,20.10
2014,06,23,14,47,20.20
2014,06,23,14,48,20.20
2014,06,23,14,49,20.30
2014,06,23,14,50,20.30
2014,06,23,14,51,20.30
2014,06,23,14,52,20.30
2014,06,23,14,53,20.30
2014,06,23,14,54,20.20
2014,06,23,14,55,20.20
2014,06,23,14,56,20.20
2014,06,23,14,57,20.20
2014,06,23,14,58,20.20
2014,06,23,14,59,20.30
2014,06,23,15,00,20.40
2014,06,23,15,01,20.40
2014,06,23,15,02,20.50
2014,06,23,15,03,20.50
2014,06,23,15,04,20.60
2014,06,23,15,05,20.60
2014,06,23,15,06,20.70
2014,06,23,15,07,20.80
2014,06,23,15,08,20.80
2014,06,23,15,09,20.90
2014,06,23,15,10,21.00
2014,06,23,15,11,21.00
2014,06,23,15,12,21.00
2014,06,23,15,13,21.00
2014,06,23,15,14,20.90
2014,06,23,15,15,21.00
2014,06,23,15,16,21.10
2014,06,23,15,17,21.10
2014,06,23,15,18,21.20
2014,06,23,15,19,21.20
2014,06,23,15,20,21.30
2014,06,23,15,21,21.30
2014,06,23,15,22,21.30
2014,06,23,15,23,21.30
2014,06,23,15,24,21.30
2014,06,23,15,25,21.40
2014,06,23,15,26,21.40
2014,06,23,15,27,21.40
2014,06,23,15,28,21.40
2014,06,23,15,29,21.40
2014,06,23,15,30,21.50
2014,06,23,15,31,21.50
2014,06,23,15,32,21.50
2014,06,23,15,33,21.50
2014,06,23,15,34,21.50
2014,06,23,15,35,21.50
2014,06,23,15,36,21.50
2014,06,23,15,37,21.50
2014,06,23,15,38,21.50
2014,06,23,15,39,21.50
2014,06,23,15,40,21.50
2014,06,23,15,41,21.40
2014,06,23,15,42,21.40
2014,06,23,15,43,21.40
2014,06,23,15,44,21.50
2014,06,23,15,45,21.50
2014,06,23,15,46,21.50
2014,06,23,15,47,21.60
2014,06,23,15,48,21.60
2014,06,23,15,49,21.60
2014,06,23,15,50,21.60
2014,06,23,15,51,21.70
2014,06,23,15,52,21.70
2014,06,23,15,53,21.70
2014,06,23,15,54,21.70
2014,06,23,15,55,21.70
2014,06,23,15,56,21.70
2014,06,23,15,57,21.80
2014,06,23,15,58,21.80
2014,06,23,15,59,21.80
2014,06,23,16,00,21.80
2014,06,23,16,01,21.90
2014,06,23,16,02,21.90
2014,06,23,16,03,22.00
2014,06,23,16,04,22.10
2014,06,23,16,05,22.20
2014,06,23,16,06,22.30
2014,06,23,16,07,22.30
2014,06,23,16,08,22.30
2014,06,23,16,09,22.30
2014,06,23,16,10,22.30
2014,06,23,16,11,22.40
2014,06,23,16,12,22.40
2014,06,23,16,13,22.40
2014,06,23,16,14,22.40
2014,06,23,16,15,22.40
2014,06,23,16,16,22.40
2014,06,23,16,17,22.40
2014,06,23,16,18,22.50
2014,06,23,16,19,22.40
2014,06,23,16,20,22.40
2014,06,23,16,21,22.40
2014,06,23,16,22,22.40
2014,06,23,16,23,22.40
2014,06,23,16,24,22.50
2014,06,23,16,25,22.50
2014,06,23,16,26,22.60
2014,06,23,16,27,22.60
2014,06,23,16,28,22.70
2014,06,23,16,29,22.70
2014,06,23,16,30,22.70
2014,06,23,16,31,22.80
2014,06,23,16,32,22.80
2014,06,23,16,33,22.80
2014,06,23,16,34,22.80
2014,06,23,16,35,22.90
2014,06,23,16,36,23.00
2014,06,23,16,37,23.00
2014,06,23,16,38,23.10
2014,06,23,16,39,23.10
2014,06,23,16,40,23.20
2014,06,23,16,41,23.30
2014,06,23,16,42,23.30
2014,06,23,16,43,23.30
2014,06,23,16,44,23.30
2014,06,23,16,45,23.30
2014,06,23,16,46,23.30
2014,06,23,16,47,23.40
2014,06,23,16,48,23.50
2014,06,23,16,49,23.60
2014,06,23,16,50,23.70
2014,06,23,16,51,23.70
2014,06,23,16,52,23.70
2014,06,23,16,53,23.70
2014,06,23,16,54,23.70
2014,06,23,16,55,23.70
2014,06,23,16,56,23.70
2014,06,23,16,57,23.60
2014,06,23,16,58,23.60
2014,06,23,16,59,23.50
2014,06,23,17,00,23.50
2014,06,23,17,01,23.40
2014,06,23,17,02,23.30
2014,06,23,17,03,23.30
2014,06,23,17,04,23.30
2014,06,23,17,05,23.30
2014,06,23,17,06,23.20
2014,06,23,17,07,23.20
2014,06,23,17,08,23.20
2014,06,23,17,09,23.10
2014,06,23,17,10,23.10
2014,06,23,17,11,23.10
2014,06,23,17,12,23.10
2014,06,23,17,13,23.00
2014,06,23,17,14,22.90
2014,06,23,17,15,22.90
2014,06,23,17,16,22.90
2014,06,23,17,17,22.80
2014,06,23,17,18,22.80
2014,06,23,17,19,22.80
2014,06,23,17,20,22.70
2014,06,23,17,21,22.70
2014,06,23,17,22,22.70
2014,06,23,17,23,22.60
2014,06,23,17,24,22.60
2014,06,23,17,25,22.60
2014,06,23,17,26,22.50
2014,06,23,17,27,22.50
2014,06,23,17,28,22.40
2014,06,23,17,29,22.40
2014,06,23,17,30,22.40
2014,06,23,17,31,22.30
2014,06,23,17,32,22.30
2014,06,23,17,33,22.20
2014,06,23,17,34,22.20
2014,06,23,17,35,22.10
2014,06,23,17,36,22.10
2014,06,23,17,37,22.10
2014,06,23,17,38,22.10
2014,06,23,17,39,22.00
2014,06,23,17,40,22.00
2014,06,23,17,41,21.90
2014,06,23,17,42,21.90
2014,06,23,17,43,21.90
2014,06,23,17,44,21.80
2014,06,23,17,45,21.80
2014,06,23,17,46,21.70
2014,06,23,17,47,21.70
2014,06,23,17,48,21.70
2014,06,23,17,49,21.70
2014,06,23,17,50,21.60
2014,06,23,17,51,21.60
2014,06,23,17,52,21.60
2014,06,23,17,53,21.60
2014,06,23,17,54,21.50
2014,06,23,17,55,21.50
2014,06,23,17,56,21.40
2014,06,23,17,57,21.40
2014,06,23,17,58,21.40
2014,06,23,17,59,21.40
2014,06,23,18,00,21.40
2014,06,23,18,01,21.40
2014,06,23,18,02,21.30
2014,06,23,18,03,21.30
2014,06,23,18,04,21.20
2014,06,23,18,05,21.10
2014,06,23,18,06,21.10
2014,06,23,18,07,21.00
2014,06,23,18,08,20.90
2014,06,23,18,09,20.80
2014,06,23,18,10,20.70
2014,06,23,18,11,20.70
2014,06,23,18,12,20.60
2014,06,23,18,13,20.50
2014,06,23,18,14,20.50
2014,06,23,18,15,20.40
2014,06,23,18,16,20.40
2014,06,23,18,17,20.30
2014,06,23,18,18,20.30
2014,06,23,18,19,20.30
2014,06,23,18,20,20.20
2014,06,23,18,21,20.20
2014,06,23,18,22,20.20
2014,06,23,18,23,20.10
2014,06,23,18,24,20.10
2014,06,23,18,25,20.10
2014,06,23,18,26,20.10
2014,06,23,18,27,20.10
2014,06,23,18,28,20.10
2014,06,23,18,29,20.10
2014,06,23,18,30,20.00
2014,06,23,18,31,20.00
2014,06,23,18,32,20.00
2014,06,23,18,33,19.90
2014,06,23,18,34,19.90
2014,06,23,18,35,19.90
2014,06,23,18,36,19.80
2014,06,23,18,37,19.80
2014,06,23,18,38,19.80
2014,06,23,18,39,19.80
2014,06,23,18,40,19.70
2014,06,23,18,41,19.70
2014,06,23,18,42,19.60
2014,06,23,18,43,19.60
2014,06,23,18,44,19.60
2014,06,23,18,45,19.50
2014,06,23,18,46,19.40
2014,06,23,18,47,19.40
2014,06,23,18,48,19.30
2014,06,23,18,49,19.30
2014,06,23,18,50,19.20
2014,06,23,18,51,19.20
2014,06,23,18,52,19.10
2014,06,23,18,53,19.10
2014,06,23,18,54,19.00
2014,06,23,18,55,19.00
2014,06,23,18,56,18.90
2014,06,23,18,57,18.90
2014,06,23,18,58,18.80
2014,06,23,18,59,18.80
2014,06,23,19,00,18.80
2014,06,23,19,01,18.70
2014,06,23,19,02,18.70
2014,06,23,19,03,18.70
2014,06,23,19,04,18.60
2014,06,23,19,05,18.60
2014,06,23,19,06,18.60
2014,06,23,19,07,18.50
2014,06,23,19,08,18.40
2014,06,23,19,09,18.40
2014,06,23,19,10,18.40
2014,06,23,19,11,18.30
2014,06,23,19,12,18.30
2014,06,23,19,13,18.30
2014,06,23,19,14,18.30
2014,06,23,19,15,18.20
2014,06,23,19,16,18.20
2014,06,23,19,17,18.20
2014,06,23,19,18,18.10
2014,06,23,19,19,18.10
2014,06,23,19,20,18.00
2014,06,23,19,21,18.00
2014,06,23,19,22,17.90
2014,06,23,19,23,17.90
2014,06,23,19,24,17.90
2014,06,23,19,25,17.80
2014,06,23,19,26,17.80
2014,06,23,19,27,17.80
2014,06,23,19,28,17.80
2014,06,23,19,29,17.70
2014,06,23,19,30,17.70
2014,06,23,19,31,17.70
2014,06,23,19,32,17.60
2014,06,23,19,33,17.60
2014,06,23,19,34,17.60
2014,06,23,19,35,17.50
2014,06,23,19,36,17.50
2014,06,23,19,37,17.50
2014,06,23,19,38,17.40
2014,06,23,19,39,17.40
2014,06,23,19,40,17.40
2014,06,23,19,41,17.40
2014,06,23,19,42,17.40
2014,06,23,19,43,17.40
2014,06,23,19,44,17.40